Location: Allen Lane School
(37.8198°N, 89.7382°W)
Time: 13:28:13
(UTC+00:00)

Cosmos 44 - Pass Details

Date: 04 July 2022
Orbit: 595 x 766 km, 65.1° (Epoch: 07 August)

Event Time Altitude Azimuth Distance (km) Brightness Sun altitude
Exits shadow 06:41:51 46° 340° (NNW) 858 4.0 -28.6°
Drops below altitude 10° 06:45:27 10° 21° (NNE) 1,998 6.6 -28.5°
Sets 06:47:44 0° 26° (NNE) 2,887 7.6 -28.4°
